Powrót do katalogu

O/OREOS

USA 219

AktywnyKrótkofalarstwoVLEO
NORAD 37224·PAYLOAD·🇺🇸 United States

Wystrzelony Nov 20, 2010 z Kodiak Launch Complex

Loading…

Następne Przeloty (najbliższe 24 godziny)

TLE

Starzejące sięSource: Space-Track

Epoka: Sep 13, 2026, 09:15 UTC

1 37224U 10062C   26256.38598693  .00001608  00000-0  15629-3 0  9990
2 37224  71.9679 240.5010 0016591 259.0313 100.8992 14.94031760129811

Śledź O/OREOS w czasie rzeczywistym z AllMySat

Download on the App Store